This demonstration page uses our WeatherBlox Daily Observations layout. Learn more.

Left ArrowRight Arrow

Hourly Observations for January 16, 2016

Temp ( °F °C ) Dew Point ( °F °C ) Humidity (%) Winds ( mph kmh ) Pressure ( in mb ) Visibility ( mi km ) Precip ( " mm )
12:54 am 00:54 Mostly Cloudy 17 -8.3 10 -12.2 74 74 N 7 11 30.04 1017 10 16 0.00 0.00
1:54 am 01:54 Cloudy 19 -7.2 8 -13.3 62 62 NNW 6 9 30.05 1018 10 16 0.00 0.00
2:54 am 02:54 Cloudy 20 -6.7 8 -13.3 60 60 N 8 13 30.06 1018 10 16 0.00 0.00
3:54 am 03:54 Cloudy 20 -6.7 8 -13.3 60 60 N 7 11 30.06 1018 10 16 0.00 0.00
4:54 am 04:54 Cloudy 20 -6.7 7 -13.9 57 57 NW 3 6 30.07 1018 10 16 0.00 0.00
5:54 am 05:54 Clear 20 -6.7 7 -13.9 57 57 Calm 30.07 1018 10 16 0.00 0.00
6:54 am 06:54 Clear 18 -7.8 8 -13.3 65 65 W 6 9 30.10 1019 10 16 0.00 0.00
7:54 am 07:54 Sunny 18 -7.8 10 -12.2 71 71 SW 5 7 30.12 1020 10 16 0.00 0.00
8:54 am 08:54 Sunny 20 -6.7 12 -11.1 71 71 Calm 30.14 1021 10 16 0.00 0.00
9:54 am 09:54 Sunny 22 -5.6 14 -10 71 71 Calm 30.14 1021 10 16 0.00 0.00
10:54 am 10:54 Sunny 28 -2.2 18 -7.8 66 66 WSW 7 11 30.13 1020 10 16 0.00 0.00
11:54 am 11:54 Partly Cloudy 32 0 19 -7.2 59 59 W 9 15 30.11 1020 10 16 0.00 0.00
12:54 pm 12:54 Cloudy 33 0.6 21 -6.1 61 61 W 10 17 30.09 1019 10 16 0.00 0.00
1:54 pm 13:54 Cloudy 32 0 25 -3.9 75 75 W 7 11 30.07 1018 7 11 0.00 0.03
2:41 pm 14:41 Cloudy 33 0.6 25 -3.9 72 72 WNW 10 17 30.09 1019 7 11 0.00 0.00
2:54 pm 14:54 Cloudy 33 0.6 25 -3.9 72 72 W 9 15 30.06 1018 9 14 0.00 0.00
3:13 pm 15:13 Windy with Snow Likely 28 -2.2 22 -5.6 78 78 N 23 37 30.12 1020 7 11 0.00 0.03
3:36 pm 15:36 Windy with Snow Likely 27 -3 19 -7 74 74 N 20 31 30.12 1020 9 14 0.00 0.00
3:54 pm 15:54 Cloudy 23 -5 17 -8.3 78 78 N 22 35 30.10 1019 10 16 0.00 0.03
4:04 pm 16:04 Cloudy 21 -6 16 -9 80 80 N 21 33 30.15 1021 10 16 0.00 0.00
4:54 pm 16:54 Cloudy 18 -7.8 11 -11.7 74 74 NNE 18 30 30.13 1020 10 16 0.00 0.00
5:54 pm 17:54 Cloudy 15 -9.4 8 -13.3 74 74 N 18 30 30.16 1021 10 16 0.00 0.00
6:13 pm 18:13 Cloudy with Light Snow 14 -10 9 -13 79 79 NNE 18 30 30.24 1024 2 3 0.00 0.00
6:24 pm 18:24 Windy with Snow Likely 14 -10 9 -13 79 79 N 20 31 30.24 1024 3 5 0.00 0.00
6:54 pm 18:54 Cloudy 14 -10 7 -13.9 73 73 NNE 15 24 30.18 1022 9 14 0.00 0.03
7:28 pm 19:28 Cloudy with Light Snow 12 -11 7 -14 79 79 NNE 16 26 30.24 1024 2 3 0.00 0.00
7:35 pm 19:35 Cloudy with Light Snow 13 -10.6 7 -13.9 77 77 N 17 28 30.24 1024 2 3 0.00 0.03
7:43 pm 19:43 Cloudy with Light Snow 12 -11.1 7 -13.9 80 80 N 16 26 30.24 1024 2 3 0.00 0.03
7:54 pm 19:54 Cloudy with Light Snow 12 -11.1 7 -13.9 80 80 NNE 14 22 30.19 1023 2 3 0.01 0.25
8:01 pm 20:01 Cloudy with Light Snow 12 -11.1 8 -13.3 84 84 NNE 15 24 30.24 1024 2 3 0.00 0.03
8:15 pm 20:15 Cloudy with Light Snow 11 -11.7 6 -14.4 81 81 N 15 24 30.24 1024 1 2 0.00 0.03
8:22 pm 20:22 Mostly Cloudy with Light Snow 10 -12 7 -14 85 85 NNE 12 19 30.24 1024 1 1 0.00 0.00
8:29 pm 20:29 Mostly Cloudy with Light Snow 11 -11.7 7 -13.9 84 84 NNE 13 20 30.27 1025 1 2 0.01 0.25
8:38 pm 20:38 Cloudy with Light Snow 10 -12 7 -14 85 85 NNE 17 28 30.27 1025 3 4 0.00 0.00
8:54 pm 20:54 Cloudy with Light Snow 10 -12.2 5 -15 80 80 NNE 15 24 30.21 1023 2 3 0.01 0.25
9:05 pm 21:05 Cloudy with Light Snow 10 -12.2 4 -15.6 76 76 NNE 17 28 30.27 1025 2 3 0.00 0.03
9:28 pm 21:28 Cloudy with Light Snow 9 -13 5 -15 85 85 NNE 15 24 30.30 1026 3 4 0.00 0.00
9:51 pm 21:51 Cloudy with Light Snow 9 -13 3 -16 78 78 NNE 14 22 30.30 1026 2 3 0.01 0.25
9:54 pm 21:54 Cloudy with Light Snow 9 -12.8 4 -15.6 80 80 N 14 22 30.22 1024 2 3 0.01 0.25
10:01 pm 22:01 Cloudy with Light Snow 9 -12.8 3 -16.1 77 77 N 18 30 30.30 1026 3 5 0.00 0.03
10:20 pm 22:20 Cloudy with Light Snow 9 -12.8 3 -16.1 77 77 N 18 30 30.33 1027 3 4 0.00 0.03
10:35 pm 22:35 Cloudy with Light Snow 9 -12.8 3 -16.1 77 77 N 16 26 30.33 1027 2 3 0.00 0.03
10:54 pm 22:54 Cloudy with Light Snow 8 -13.3 3 -16.1 80 80 N 17 28 30.23 1024 2 3 0.00 0.03
11:19 pm 23:19 Cloudy with Light Snow 9 -13 3 -16 78 78 N 14 22 30.33 1027 2 2 0.00 0.00
11:37 pm 23:37 Cloudy with Light Snow 8 -13.3 3 -16.1 80 80 N 15 24 30.33 1027 2 2 0.01 0.25
11:54 pm 23:54 Cloudy with Light Snow 8 -13.3 2 -16.7 76 76 N 18 30 30.25 1024 2 3 0.01 0.25

Powered by AerisWeather